Meteo Giornale » Osservazioni meteo Italia » Cagliari-Elmas

ore: 22:50 - Osservazioni Meteo Cagliari-Elmas
Lat. 39° 15' N Lon. 9° 4' E Alt. 4 metri s.l.m.

poco_nuvoloso Europe/Rome

13 °C

Poco Nuvoloso

Temp. 24 Ore

7 °C

18 °C

Nord

5.5 Km/h

Dew point 8 °C

Umidità 71 %

Visibilità  10 Km

Il sole sorge alle ore 07:12

Il sole tramonta alle ore 19:45

Data e Ora Cielo e Fenomeni T °C DP °C Um. % Pres. hPa Vis. km Vento km/h
Oggi h: 22:50 poco_nuvoloso Poco Nuvoloso 13 8 71 1024 10 N 5.5
Oggi h: 22:20 nuvoloso Nuvoloso 13 8 71 1024 10 S/SE 7.4
Oggi h: 21:50 nuvoloso Nuvoloso 13 8 71 1024 10 S/SE 9.3
Oggi h: 21:20 poco_nuvoloso Poco Nuvoloso 13 8 71 1024 10 S/SE 11.1
Oggi h: 20:50 sereno Sereno 14 8 67 1023 10 S/SE 13
Oggi h: 20:20 sereno Sereno 14 8 67 1023 10 S/SE 13
Oggi h: 19:50 sereno Sereno 14 8 67 1023 10 S/SE 16.7
Oggi h: 19:20 poco_nuvoloso Poco Nuvoloso 14 7 62 1023 10 S/SE 14.8
Oggi h: 18:50 poco_nuvoloso Poco Nuvoloso 15 6 54 1022 10 S/SE 18.5
Oggi h: 18:20 poco_nuvoloso Poco Nuvoloso 15 5 51 1022 10 S/SE 18.5
Oggi h: 17:50 poco_nuvoloso Poco Nuvoloso 16 6 51 1022 10 S 20.3
Oggi h: 17:20 poco_nuvoloso Poco Nuvoloso 16 6 51 1022 10 S 14.8
Oggi h: 16:50 nuvoloso Nuvoloso 16 5 47 1022 10 S 18.5
Oggi h: 16:20 nuvoloso Nuvoloso 17 7 51 1022 10 S/SE 18.5
Oggi h: 15:50 nuvoloso Nuvoloso 17 6 48 1022 10 S/SE 18.5
Oggi h: 15:20 nuvoloso Nuvoloso 17 7 51 1022 10 S 18.5
Oggi h: 14:50 nuvoloso Nuvoloso 17 6 48 1022 10 S 18.5
Oggi h: 14:20 nuvoloso Nuvoloso 18 6 45 1022 10 S 18.5
Oggi h: 13:50 nuvoloso Nuvoloso 17 5 45 1022 10 S/SO 11.1
Oggi h: 13:20 nuvoloso Nuvoloso 18 5 42 1023 10 N 3.7
Oggi h: 12:50 nuvoloso Nuvoloso 18 5 42 1023 10 N 11.1
Oggi h: 12:20 poco_nuvoloso Poco Nuvoloso 17 7 51 1023 10 SO 11.1
Oggi h: 11:50 poco_nuvoloso Poco Nuvoloso 16 7 55 1023 10 O/SO 11.1
Oggi h: 11:20 poco_nuvoloso Poco Nuvoloso 15 8 62 1023 10 NO 9.3
Oggi h: 10:50 poco_nuvoloso Poco Nuvoloso 14 9 71 1023 10 O/NO 9.3
Oggi h: 10:20 sereno Sereno 13 8 71 1023 10 O/NO 11.1
Oggi h: 09:50 sereno Sereno 11 8 81 1023 10 NO 9.3
Oggi h: 09:20 sereno Sereno 11 8 81 1023 10 N/NO 9.3
Oggi h: 08:50 sereno Sereno 9 7 87 1023 10 N 5.5
Oggi h: 08:20 sereno Sereno 7 6 93 1022 10 N/NO 7.4
Oggi h: 07:50 sereno Sereno 7 6 93 1022 10 NO 7.4
Oggi h: 07:20 sereno Sereno 7 5 87 1022 10 NO 7.4
Oggi h: 06:50 sereno Sereno 8 5 81 1022 10 N 5.5
Oggi h: 06:20 sereno Sereno 7 5 87 1022 10 N 1.8
Oggi h: 05:50 sereno Sereno 9 7 87 1022 10 N 3.7
Oggi h: 05:20 sereno Sereno 9 7 87 1022 10 N 5.5
Oggi h: 04:50 sereno Sereno 9 7 87 1022 10 E/NE 7.4
Oggi h: 04:20 sereno Sereno 10 7 81 1022 10 NO 7.4
Oggi h: 03:50 poco_nuvoloso Poco Nuvoloso 10 8 87 1022 10 N/NO 7.4
Oggi h: 03:20 poco_nuvoloso Poco Nuvoloso 10 8 87 1022 10 NO 9.3
Oggi h: 02:50 poco_nuvoloso Poco Nuvoloso 10 8 87 1022 10 N/NO 9.3
Oggi h: 02:20 poco_nuvoloso Poco Nuvoloso 10 8 87 1022 10 N 11.1
Oggi h: 01:50 sereno Sereno 11 9 87 1022 10 NO 9.3
Oggi h: 01:20 poco_nuvoloso Poco Nuvoloso 12 8 76 1022 10 O 11.1
Oggi h: 00:50 poco_nuvoloso Poco Nuvoloso 13 8 71 1022 10 O 7.4
Oggi h: 00:20 poco_nuvoloso Poco Nuvoloso 13 8 71 1022 10 O/SO 7.4
Ieri h: 23:50 poco_nuvoloso Poco Nuvoloso 14 8 67 1022 10 SO 11.1